#timestamp,LO_Frequency,Hit,StdDev 
1503190815.1,286046999.8,N,1.1
1503190816.0,286046999.8,N,1.1
1503190835.8,286046999.9,N,1.1
1503190855.7,286047002.8,N,1.1
1503190875.5,286047000.1,N,1.1
1503190895.3,286047001.0,N,1.1
1503190915.2,286047000.1,N,1.1
1503190935.0,286046999.8,N,1.2
1503190935.9,286046999.8,N,1.2
1503190955.7,286046999.8,N,1.2
1503190975.6,286047000.1,N,1.2
1503190995.4,286047000.2,N,1.2
1503191015.3,286047000.2,N,1.2
1503191035.1,286047000.2,N,1.2
1503191055.8,286047002.2,N,1.2
1503191075.7,286047002.7,N,1.2
1503191095.5,286047002.4,N,1.3
1503191115.4,286047000.1,N,1.3
1503191135.2,286046999.8,N,1.2
1503191155.0,286046999.8,N,1.2
1503191155.9,286046999.8,N,1.2
1503191175.8,286047002.5,N,1.2
1503191195.6,286046999.8,N,1.2
1503191215.4,286047002.8,N,1.2
1503191235.3,286047002.0,N,1.2
1503191255.1,286047002.0,N,1.2
1503191275.9,286047002.7,N,1.1
1503191295.7,286047002.2,N,1.2
1503191315.5,286047001.5,N,1.2
1503191335.4,286047001.9,N,1.2
1503191355.2,286047002.3,N,1.2
1503191375.1,286047000.1,N,1.2
1503191376.0,286047000.1,N,1.2
1503191395.8,286047000.1,N,1.1
1503191415.6,286047000.1,N,1.1
1503191435.5,286046999.7,N,1.2
1503191455.3,286047001.5,N,1.1
1503191475.2,286047002.3,N,1.2
1503191495.9,286047002.5,N,1.2
1503191515.7,286047004.3,Y,0.0
1503191535.6,286047002.8,P,0.8
1503191555.4,286047000.9,N,0.8
1503191575.3,286047000.3,N,0.9
1503191595.1,286047000.7,N,0.9
1503191596.0,286047000.7,N,0.8
1503191615.8,286047000.3,N,0.8
1503191635.7,286047000.5,N,0.8
1503191655.5,286047000.0,N,0.8
1503191675.3,286047000.4,N,0.7
1503191695.2,286047002.7,Y,0.0
1503191715.0,286047000.4,P,0.2
1503191715.9,286047000.4,N,0.2
1503191735.8,286047001.2,P,0.3
1503191755.6,286047000.3,N,0.3
1503191775.4,286047000.6,N,0.3
1503191795.3,286047000.9,N,0.3
1503191815.1,286047001.0,Y,0.0
1503191835.9,286047001.0,P,0.2
1503191855.7,286047000.8,P,0.1
1503191875.5,286047000.7,P,0.1
1503191895.4,286047000.6,Y,0.0
1503191915.2,286047001.2,P,0.2
1503191935.1,286047001.2,P,0.2
1503191936.0,286047001.2,P,0.2
1503191955.8,286046998.1,Y,0.0
1503191975.6,286046998.9,P,1.1
1503191995.5,286046999.4,N,0.9
1503192015.3,286046997.1,P,1.4
1503192035.2,286046999.6,N,1.3
1503192055.9,286046997.1,N,1.4
1503192075.7,286046997.3,N,1.4
1503192095.6,286046997.6,N,1.4
1503192115.4,286046997.7,N,1.3
1503192135.3,286046997.4,N,1.3
1503192155.1,286046997.7,N,1.2
1503192156.0,286046997.7,N,1.2
1503192175.8,286046997.1,N,1.2
1503192195.7,286046999.5,N,1.2
1503192215.5,286046999.4,N,1.2
1503192235.4,286046997.2,N,1.2
1503192255.2,286046997.7,N,1.2
1503192275.0,286046997.9,N,1.1
1503192275.9,286046997.9,N,1.1
1503192295.8,286046998.0,N,1.1
1503192315.6,286046995.8,Y,0.0
1503192335.5,286046999.2,P,0.5
1503192355.3,286046997.1,P,0.9
1503192375.1,286046998.0,N,0.7
1503192395.9,286046997.6,Y,0.0
1503192415.7,286046999.4,P,0.6
1503192435.5,286046999.6,N,0.7
1503192455.4,286046998.8,N,0.6
1503192475.2,286046996.5,Y,0.0
1503192495.1,286046998.9,P,0.0
1503192496.0,286046998.9,P,0.0
1503192515.8,286046999.4,P,0.2
1503192535.6,286046996.6,Y,0.0
1503192555.5,286046999.1,P,0.0
1503192575.3,286046996.6,P,1.2
1503192595.2,286046997.6,N,1.0
1503192645.9,286046997.7,E,nan
1503192655.9,286046996.6,N,0.0
1503192675.7,286046998.2,P,0.8
1503192695.5,286046999.5,N,1.2
1503192715.4,286046998.8,N,1.1
1503192735.2,286046999.3,N,1.0
1503192755.0,286046999.3,N,1.0
1503192755.9,286046999.3,N,1.0
1503192775.8,286046996.7,Y,0.0
1503192795.6,286046999.3,P,0.3
1503192815.5,286046998.6,P,0.3
1503192835.3,286047001.1,P,1.0
1503192855.1,286046998.5,N,1.0
1503192875.9,286046998.8,N,0.9
1503192895.7,286046999.1,N,0.8
1503192915.6,286046998.4,N,0.8
1503192935.4,286046998.3,N,0.8
1503192955.2,286046999.5,N,0.8
1503192975.1,286046998.9,N,0.7
1503192976.0,286046998.9,N,0.7
1503192995.8,286046998.3,N,0.7
1503193015.7,286046999.6,N,0.7
1503193035.5,286046996.5,Y,0.0
1503193055.3,286046998.4,P,0.3
1503193075.2,286046998.8,P,0.2
1503193095.0,286046998.7,P,0.2
1503193095.9,286046998.7,Y,0.0
1503193115.8,286047000.8,P,1.0
1503193135.6,286047000.9,N,1.0
1503193155.4,286046998.4,N,1.2
1503193175.3,286046998.6,N,1.1
1503193195.1,286047001.2,N,1.2
1503193215.9,286047000.8,N,1.2
1503193235.7,286046999.9,N,1.1
1503193255.5,286047000.7,N,1.1
1503193275.4,286047001.1,N,1.1
1503193295.2,286047000.5,N,1.0
1503193315.0,286047000.5,N,1.0
1503193316.0,286047000.5,N,0.9
1503193335.8,286047001.2,N,0.9
1503193355.6,286046998.6,N,1.0
1503193375.5,286046998.2,N,1.1
1503193395.3,286047000.6,N,1.1
1503193415.1,286047001.0,N,1.1
1503193435.9,286047002.8,N,1.2
1503193455.7,286047000.9,N,1.2
1503193475.6,286047000.9,N,1.1
1503193495.4,286047000.7,N,1.1
1503193515.2,286046998.3,N,1.2
1503193535.1,286046999.0,N,1.2
1503193536.0,286046999.0,N,1.2
1503193555.8,286046998.9,N,1.2
1503193575.7,286046998.5,N,1.2
1503193595.5,286046998.8,N,1.2
1503193615.3,286046998.1,N,1.2
1503193635.2,286047000.7,N,1.2
1503193655.0,286047001.2,N,1.2
1503193655.9,286047001.2,N,1.2
1503193675.8,286046998.4,N,1.2
1503193695.6,286046999.0,N,1.2
1503193715.4,286047000.7,N,1.2
1503193735.3,286046999.3,N,1.2
1503193755.1,286046999.3,N,1.2
1503193775.8,286046996.9,N,1.3
1503193795.7,286046996.6,N,1.4
1503193815.5,286046997.7,N,1.4
1503193835.4,286046997.5,N,1.5
1503193855.2,286046996.8,N,1.5
1503193875.0,286046997.0,N,1.6
1503193875.9,286046997.0,N,1.6
1503193895.8,286046996.6,N,1.7
1503193915.6,286046999.6,N,1.6
1503193935.5,286046996.8,N,1.7
1503193955.3,286046996.6,N,1.7
1503193975.1,286046997.2,N,1.5
1503193995.9,286046996.6,N,1.5
1503194015.7,286046997.8,N,1.5
1503194035.5,286046996.8,N,1.4
1503194055.4,286046997.5,N,1.4
1503194075.2,286046997.8,N,1.4
1503194095.1,286046997.2,N,1.4
1503194096.0,286046997.2,N,1.4
1503194115.8,286046997.5,N,1.4
1503194135.6,286046995.5,Y,0.0
1503194155.5,286046996.7,P,0.7
1503194175.3,286046996.9,P,0.6
1503194195.2,286046999.1,N,1.0
1503194215.9,286046998.4,N,0.9
1503194235.7,286046999.2,N,1.0
1503194255.6,286046998.4,N,0.9
1503194275.4,286046998.2,N,0.9
1503194295.3,286047001.2,N,1.3
1503194315.1,286047000.5,N,1.3
1503194316.0,286047000.5,N,1.4
1503194335.8,286047001.1,N,1.5
1503194355.7,286047001.1,N,1.5
1503194375.5,286046999.7,N,1.5
1503194395.3,286047002.4,N,1.6
